• en France
  • Liste des pays
  • À 7 jours
  • Température de l'eau
  • Carte satellitaire
  • Carte météo
  • Widgets météo
  • user-avatar
    Se connecter

    Météo par heure à Krivcovo-Plota

    Ce jour, 19 Août, Dimanche

    Heure Température Précipitation Vent Pression Humidité
    00:00 +17°C° 0 mm 2 m/s 750 mmHg 70%
    01:00 +17°C° 0 mm 2 m/s 750 mmHg 72%
    02:00 +16°C° 0 mm 1 m/s 750 mmHg 73%
    03:00 +16°C° 0 mm 1 m/s 750 mmHg 74%
    04:00 +16°C° 0 mm 1 m/s 750 mmHg 75%
    05:00 +15°C° 0 mm 1 m/s 750 mmHg 77%
    06:00 +15°C° 0 mm 1 m/s 750 mmHg 78%
    07:00 +18°C° 0 mm 1 m/s 751 mmHg 72%
    08:00 +20°C° 0 mm 1 m/s 751 mmHg 66%
    09:00 +22°C° 0 mm 1 m/s 751 mmHg 59%
    10:00 +23°C° 0 mm 2 m/s 751 mmHg 55%
    11:00 +24°C° 0 mm 2 m/s 751 mmHg 50%
    12:00 +25°C° 0 mm 2 m/s 751 mmHg 46%
    13:00 +26°C° 0 mm 2 m/s 750 mmHg 44%
    14:00 +26°C° 0 mm 2 m/s 750 mmHg 43%
    15:00 +26°C° 0 mm 2 m/s 750 mmHg 41%
    16:00 +26°C° 0 mm 2 m/s 749 mmHg 43%
    17:00 +26°C° 0 mm 1 m/s 749 mmHg 46%
    18:00 +26°C° 0 mm 1 m/s 749 mmHg 48%
    19:00 +24°C° 0 mm 1 m/s 749 mmHg 51%
    20:00 +22°C° 0 mm 1 m/s 749 mmHg 54%
    21:00 +21°C° 0 mm 1 m/s 749 mmHg 57%
    22:00 +19°C° 0 mm 2 m/s 749 mmHg 59%
    23:00 +18°C° 0 mm 2 m/s 749 mmHg 60%

    Demain, 20 Août, Lundi

    Heure Température Précipitation Vent Pression Humidité
    00:00 +18°C° 0 mm 2 m/s 749 mmHg 62%
    01:00 +17°C° 0 mm 2 m/s 749 mmHg 64%
    02:00 +17°C° 0 mm 2 m/s 749 mmHg 66%
    03:00 +17°C° 0 mm 2 m/s 749 mmHg 67%
    04:00 +16°C° 0 mm 2 m/s 749 mmHg 69%
    05:00 +16°C° 0 mm 2 m/s 748 mmHg 71%
    06:00 +16°C° 0 mm 2 m/s 748 mmHg 73%
    07:00 +18°C° 0 mm 2 m/s 748 mmHg 68%
    08:00 +20°C° 0 mm 2 m/s 749 mmHg 62%
    09:00 +22°C° 0 mm 3 m/s 749 mmHg 57%
    10:00 +24°C° 0 mm 3 m/s 748 mmHg 53%
    11:00 +25°C° 0 mm 3 m/s 748 mmHg 48%
    12:00 +27°C° 0 mm 3 m/s 748 mmHg 44%
    13:00 +27°C° 0 mm 3 m/s 748 mmHg 42%
    14:00 +28°C° 0 mm 3 m/s 747 mmHg 41%
    15:00 +28°C° 0 mm 3 m/s 747 mmHg 40%
    16:00 +28°C° 0 mm 3 m/s 747 mmHg 43%
    17:00 +27°C° 0 mm 3 m/s 746 mmHg 46%
    18:00 +27°C° 0 mm 2 m/s 746 mmHg 50%
    19:00 +25°C° 0 mm 2 m/s 746 mmHg 53%
    20:00 +23°C° 0 mm 2 m/s 746 mmHg 56%
    21:00 +21°C° 0 mm 3 m/s 746 mmHg 59%
    22:00 +20°C° 0 mm 3 m/s 746 mmHg 60%
    23:00 +19°C° 0 mm 3 m/s 746 mmHg 61%

    Après-demain, 21 Août, Mardi

    Heure Température Précipitation Vent Pression Humidité
    00:00 +19°C° 0 mm 3 m/s 746 mmHg 62%
    01:00 +19°C° 0 mm 3 m/s 746 mmHg 62%
    02:00 +18°C° 0 mm 3 m/s 745 mmHg 62%
    03:00 +18°C° 0 mm 3 m/s 745 mmHg 61%
    04:00 +18°C° 0 mm 3 m/s 745 mmHg 62%
    05:00 +17°C° 0 mm 3 m/s 745 mmHg 62%
    06:00 +17°C° 0 mm 3 m/s 745 mmHg 63%
    07:00 +19°C° 0 mm 4 m/s 745 mmHg 59%
    08:00 +21°C° 0 mm 4 m/s 745 mmHg 55%
    09:00 +22°C° 0 mm 5 m/s 745 mmHg 52%
    10:00 +25°C° 0 mm 5 m/s 744 mmHg 48%
    11:00 +27°C° 0 mm 6 m/s 744 mmHg 44%
    12:00 +28°C° 0 mm 6 m/s 744 mmHg 40%
    13:00 +29°C° 0 mm 7 m/s 743 mmHg 40%
    14:00 +29°C° 0 mm 7 m/s 743 mmHg 40%
    15:00 +29°C° 0 mm 7 m/s 742 mmHg 40%
    16:00 +29°C° 0 mm 6 m/s 742 mmHg 44%
    17:00 +28°C° 0 mm 5 m/s 742 mmHg 48%
    18:00 +27°C° 0 mm 4 m/s 742 mmHg 52%
    19:00 +26°C° 0,2 mm 4 m/s 742 mmHg 58%
    20:00 +23°C° 0,2 mm 4 m/s 742 mmHg 64%
    21:00 +22°C° 0,2 mm 4 m/s 742 mmHg 69%
    22:00 +21°C° 0,1 mm 4 m/s 743 mmHg 75%
    23:00 +19°C° 0,1 mm 4 m/s 743 mmHg 80%

    22 Août, Mercredi

    Heure Température Précipitation Vent Pression Humidité
    00:00 +18°C° 0,1 mm 3 m/s 743 mmHg 86%
    01:00 +17°C° 0 mm 3 m/s 743 mmHg 87%
    02:00 +16°C° 0 mm 3 m/s 744 mmHg 87%
    03:00 +14°C° 0 mm 3 m/s 744 mmHg 88%
    04:00 +14°C° 0 mm 3 m/s 744 mmHg 88%
    05:00 +13°C° 0 mm 3 m/s 745 mmHg 87%
    06:00 +13°C° 0 mm 3 m/s 745 mmHg 86%
    07:00 +14°C° 0 mm 4 m/s 745 mmHg 78%
    08:00 +15°C° 0 mm 4 m/s 746 mmHg 70%
    09:00 +17°C° 0 mm 5 m/s 746 mmHg 62%
    10:00 +19°C° 0 mm 5 m/s 747 mmHg 57%
    11:00 +20°C° 0 mm 5 m/s 747 mmHg 52%
    12:00 +20°C° 0 mm 5 m/s 747 mmHg 46%
    13:00 +21°C° 0 mm 5 m/s 747 mmHg 45%
    14:00 +21°C° 0 mm 5 m/s 747 mmHg 44%
    15:00 +21°C° 0 mm 5 m/s 748 mmHg 43%
    16:00 +21°C° 0 mm 5 m/s 748 mmHg 45%
    17:00 +20°C° 0 mm 4 m/s 748 mmHg 48%
    18:00 +20°C° 0 mm 4 m/s 748 mmHg 50%
    19:00 +18°C° 0 mm 3 m/s 749 mmHg 55%
    20:00 +16°C° 0 mm 3 m/s 749 mmHg 60%
    21:00 +15°C° 0 mm 2 m/s 750 mmHg 64%
    22:00 +14°C° 0 mm 2 m/s 750 mmHg 67%
    23:00 +14°C° 0 mm 2 m/s 750 mmHg 69%

    23 Août, Jeudi

    Heure Température Précipitation Vent Pression Humidité
    00:00 +13°C° 0 mm 2 m/s 751 mmHg 71%
    01:00 +13°C° 0 mm 2 m/s 751 mmHg 73%
    02:00 +12°C° 0 mm 2 m/s 751 mmHg 74%
    03:00 +12°C° 0 mm 2 m/s 751 mmHg 76%
    04:00 +10°C° 0 mm 2 m/s 751 mmHg 76%
    05:00 +10°C° 0 mm 2 m/s 751 mmHg 77%
    06:00 +11°C° 0 mm 1 m/s 752 mmHg 78%
    07:00 +12°C° 0 mm 1 m/s 752 mmHg 71%
    08:00 +14°C° 0 mm 1 m/s 752 mmHg 65%
    09:00 +16°C° 0 mm 2 m/s 752 mmHg 58%
    10:00 +18°C° 0 mm 1 m/s 752 mmHg 53%
    11:00 +20°C° 0 mm 1 m/s 752 mmHg 48%
    12:00 +21°C° 0 mm 1 m/s 752 mmHg 43%
    13:00 +21°C° 0 mm 1 m/s 752 mmHg 42%
    14:00 +22°C° 0 mm 1 m/s 751 mmHg 40%
    15:00 +23°C° 0 mm 1 m/s 751 mmHg 38%
    16:00 +22°C° 0 mm 1 m/s 751 mmHg 39%
    17:00 +22°C° 0 mm 1 m/s 751 mmHg 41%
    18:00 +20°C° 0 mm 0 m/s 751 mmHg 42%
    19:00 +20°C° 0 mm 1 m/s 751 mmHg 46%
    20:00 +18°C° 0 mm 1 m/s 751 mmHg 50%
    21:00 +16°C° 0 mm 1 m/s 751 mmHg 53%
    22:00 +15°C° 0 mm 1 m/s 751 mmHg 55%
    23:00 +15°C° 0 mm 1 m/s 751 mmHg 56%

    24 Août, Vendredi

    Heure Température Précipitation Vent Pression Humidité
    00:00 +14°C° 0 mm 1 m/s 751 mmHg 58%
    01:00 +14°C° 0 mm 1 m/s 751 mmHg 59%
    02:00 +13°C° 0 mm 1 m/s 751 mmHg 61%
    03:00 +13°C° 0 mm 1 m/s 751 mmHg 62%
    04:00 +13°C° 0 mm 1 m/s 751 mmHg 64%
    05:00 +13°C° 0 mm 1 m/s 751 mmHg 65%
    06:00 +12°C° 0 mm 1 m/s 751 mmHg 67%
    07:00 +14°C° 0 mm 1 m/s 751 mmHg 62%
    08:00 +16°C° 0 mm 1 m/s 751 mmHg 57%
    09:00 +18°C° 0 mm 2 m/s 751 mmHg 51%
    10:00 +20°C° 0 mm 2 m/s 751 mmHg 47%
    11:00 +21°C° 0 mm 2 m/s 751 mmHg 43%
    12:00 +23°C° 0 mm 2 m/s 751 mmHg 39%
    13:00 +24°C° 0 mm 2 m/s 750 mmHg 38%
    14:00 +24°C° 0 mm 2 m/s 750 mmHg 37%
    15:00 +25°C° 0 mm 2 m/s 750 mmHg 35%
    16:00 +25°C° 0 mm 2 m/s 749 mmHg 38%
    17:00 +24°C° 0 mm 1 m/s 749 mmHg 41%
    18:00 +24°C° 0 mm 1 m/s 749 mmHg 44%
    19:00 +22°C° 0 mm 1 m/s 749 mmHg 47%
    20:00 +19°C° 0 mm 2 m/s 749 mmHg 50%
    21:00 +18°C° 0 mm 2 m/s 749 mmHg 53%
    22:00 +17°C° 0 mm 2 m/s 749 mmHg 55%
    23:00 +17°C° 0 mm 2 m/s 749 mmHg 56%
    Voir plus